Location: Grand Rapids
(42.9630°N, 85.6680°W)
Time: 03:26:33
(UTC-04:00)

A-11 Canister half - Pass Details

Date: 05 June 2024
Orbit: 1524 x 1684 km, 47.3° (Epoch: 21 June)

Event Time Altitude Azimuth Distance (km) Brightness Sun altitude
Rises 02:13:52 0° 295° (WNW) 4,732 11.8 -24.0°
Reaches altitude 10° 02:17:10 10° 288° (WNW) 3,765 11.1 -23.9°
Maximum altitude 02:25:40 38° 225° (SW) 2,281 9.5 -23.6°
Enters shadow 02:27:09 36° 207° (SSW) 2,349 9.4 -23.6°
Drops below altitude 10° 02:34:25 10° 162° (SSE) 3,866 - -23.3°
Sets 02:37:52 0° 154° (SSE) 4,870 - -23.1°
